Погода Туапсе

Погода Туапсе : погода сейчас, прогноз погоды и архив. Всё, что Вы хотите узнать о погоде Туапсе!

Хотите узнать прогноз погоды Туапсе? Тогда Вам сюда: Погода Туапсе

Поиск расширенной информации на нашем сайте:

Другие новости

Новости СМИ2

Главная страница сайта

Новости сайта

03.07.2017

Напоминаем, что на нашем специализированном сайте Метеоцентр.Азия вы можете получить высокодетализированные автоматические прогнозы погоды по пунктам России, СНГ и мира в авиационном формате (включающие направление и скорость ветра, видимость, явления погоды, количество и форму облачности, нижнюю и верхнюю границу облачности).


Погода Туапсе - сегодня

Время (UTC), дата Ветер
(°,м/с) 
Видим.   Явления Облачность Т
(°С)
Тd
(°С)
f(%) Тe
(°С)
Pmin
(гПа)
dP
(гПа)
Po
(мм)
O2
(г/м3)
Тmin Tmax R s Состояние
почвы
21 16.10.18 030 (СВ) 10 км    ясно 
+18.9 +7 46 +20  1020.1  0.6  760  285           
00 17.10.18 060 (СВ) 10 км    ясно 
+16.1 +7.6 57 +17  1020.2  0.1  760  288           
03 17.10.18 050 (СВ) 10 км    ясно 
+14 +8.1 68 +15  1020.7  0.4  760  290  +13.9        сухая 
06 17.10.18 060 (СВ) 20000 м    ясно 
+17.8 +8.8 56 +18  1020.8  0.2  760  286  +13.5         
09 17.10.18 240 (ЮЗ) 20000 м    ясно 
+25.7 +13.2 46 +31  1020  -0.6  760  277           
12 17.10.18 260 (З) 20000 м    ясно 
+25.1 +12.2 45 +29  1018.2  -1.8  758  278           
15 17.10.18 030 (СВ) 20000 м    3/0 верхняя 
[Ci fib]
+21.4 +8.1 42 +21  1017.1  -1.2  757  282    +26.8       
18 17.10.18 100 (В) 10 км    ясно 
+19.1 +13.7 71 +26  1017.7  0.6  758  283           
21 17.10.18 040 (СВ) н/о    н/о 
+16.7 +9.3 62 +18  1018.6  0.8  758  286           
00 18.10.18 040 (СВ) 10 км    ясно 
+16.7 +9.3 62 +18  1018.6  0.8  758  286           
03 18.10.18 050 (СВ) 10 км    ясно 
+13.6 +8.7 72 +14  1018.4  0.2  758  290  +13.6        сухая 
06 18.10.18 060 (СВ) 20000 м    ясно 
+17.5 +9 57 +18  1018.7  0.4  759  286  +13.3         
09 18.10.18 220 (ЮЗ) 20000 м    ясно 
+24.3 +12.6 48 +29  1018.1  -0.4  758  278           
12 18.10.18 230 (ЮЗ) 20000 м    ясно 
+24.7 +14.5 53 +32  1016.7  -1.4  757  277           
15 18.10.18 040 (СВ) 20000 м    ясно 
+19 +14.5 75 +29  1016.1  -0.7  757  282    +25.8       
18 18.10.18 030 (СВ) 10 км    ясно 
+17.1 +13.4 79 +25  1016.2  757  284           
21 18.10.18 040 (СВ) 10 км    ясно 
+14.3 +10.9 80 +17  1017.1  0.9  757  288           
00 19.10.18 040 (СВ) 10 км    ясно 
+14.3 +11.6 84 +18  1017  -0.1  757  288           
03 19.10.18 020 (С) 10 км    ясно 
+13.6 +9.9 78 +15  1017.3  0.2  757  289  +12.9        сухая 
06 19.10.18 050 (СВ) 20000 м    ясно 
+17.8 +11.3 66 +22  1017.7  0.5  758  285           
09 19.10.18 230 (ЮЗ) 20000 м    ясно 
+23.9 +14.8 57 +32  1017.5  758  278           
12 19.10.18 230 (ЮЗ) 20000 м    ясно 
+24.5 +14.6 54 +32  1016.2  -1.3  757  277           
15 19.10.18 340 (С) 20000 м    ясно 
+19.1 +14.3 74 +28  1015.8  -0.5  756  282    +25.2       
18 19.10.18 020 (С) 10 км    ясно 
+16.9 +12.8 77 +23  1016.3  0.4  757  285           
21 19.10.18 040 (СВ) 10 км    4/4 1000 м 
[Sc]
+15.5 +12 80 +21  1016.6  0.3  757  286           
Время (UTC), дата Ветер
(°,м/с) 
Видим.   Явления Облачность Т
(°С)
Тd
(°С)
f(%) Тe
(°С)
Pmin
(гПа)
dP
(гПа)
Po
(мм)
O2
(г/м3)
Тmin Tmax R s Состояние
почвы

Для получения пояснительной информации подведите курсор к названию столбца.

ПОГОДА Туапсе - архив

Всё, что Вы хотите узнать о погоде Туапсе - удобно и подробно!

Выберите нужную дату (начиная с 1 января 2015* года) и нажмите кнопку "Найти".
Будут отображены архивные сводки погоды по пункту Туапсе, начиная с указанной даты.


Отображать данные в формате CSV (для использования в таблицах Excel)


Внимание! Наш архив погоды предназначен исключительно для личного некоммерческого использования в познавательных целях. Если Вам необходимы официальные справки о состоянии погоды (для производственных, юридических, коммерческих и т.п. целей), обращайтесь в органы Росгидромета.

*Примечание: данная дата относится к архиву по метеостанциям СССР (Россия, СНГ, Балтия).
Архив по метеостанциям Зарубежной Европы и Азии (кроме Китая) хранится 10 дней, по другим регионам земного шара (Китай, Африка, Америка, Австралия, Океания) - 1 день.

Туапсе - район местоположения метеостанции


Название, широта, долгота, высота метеостанции:
Туапсе 44.1°ш. 39.1°д. 61 м над ур. моря [Российская Федерация]

Дополнительная информация

В oтличие oт бoльшинства пoгoдных сайтoв мы публикуем пoдрoбную метеoинфoрмацию в детальнoм прoфессиoнальнoм фoрмате.

Характеристики температуры и влажнoсти вoздуха измеряются на высoте 2 м в тени вдали oт зданий и деревьев.
Скoрoсть ветра измеряется на высoте 10 м (на урoвне рoста челoвека скoрoсть ветра ниже в 1.5-2 раза). Если метеoстанция нахoдится в гoрoде или в лесу, тo скoрoсть ветра занижена на 2-4 м/с пo сравнению с oткрытым местoм. Скoрoсть ветра над акватoриями крупных рек и oзёр, а также на вершинах хoлмoв на 2-5 м/с выше, чем в oбычных услoвиях.
Атмoсфернoе давление в разных тoчках местнoсти мoжет значительнo oтличаться oт давления на метеoстанции, в зависимoсти oт услoвий рельефа (при пoдъёме на 10 м давление пoнижается примернo на 1 мм рт.ст.).